Regional Weather Roundup
Issued by NWS Grand Forks, ND

Home | Current Version | Previous Version | Graphics & Text | Print | Product List | Glossary On
Versions: 1 2 3 4 5 6 7 8 9 10 11 12 13 14 15 16 17 18 19 20 21 22 23 24 25 26 27 28 29 30 31 32 33 34 35 36 37 38 39 40 41 42 43 44 45 46 47 48 49 50
000
ASUS43 KFGF 202331
RWRFGF
PRAIRIE TO PINES  WEATHER ROUNDUP
NATIONAL WEATHER SERVICE EASTERN NORTH DAKOTA/GRAND FORKS ND
600 PM CDT SAT SEP 20 2014

 **SATELLITE DATA USED TO AUGMENT SKY COVER AT AUTOMATED STATIONS**
 *****  WEATHER ACROSS EASTERN NORTH DAKOTA  *****

CITY           SKY/WX    TMP DP  RH WIND       PRES   REMARKS
GRAND FORKS    LGT RAIN  62  51  67 NW21G26   29.81R
GRAND FRKS AFB PTSUNNY   59  48  67 N10       29.83R
GRAND FRKS NWS   N/A     63 N/A N/A N5          N/A
DEVILS LAKE    PTSUNNY   68  45  42 NW22G31   29.86R
FARGO          MOSUNNY   68  51  54 NW15      29.84R
WAHPETON ARPT  CLEAR     64  46  52 NW14G21   29.87S
$$

 ***** WEATHER ACROSS CENTRAL AND WESTERN NORTH DAKOTA  *****

CITY           SKY/WX    TMP DP  RH WIND       PRES   REMARKS
BISMARCK       MOSUNNY   72  38  29 NW20G31   30.01R
MINOT          SUNNY     69  35  28 NW29G40   29.97R
JAMESTOWN      SUNNY     68  41  37 NW23G35   29.91R
MINOT AFB      SUNNY     68  39  34 NW29G39   29.95R
GARRISON         N/A     70  37  29 NW21G35   30.00R
WILLISTON      SUNNY     71  34  25 NW24G31   30.08R
DICKINSON      MOSUNNY   68  37  32 NW18G29   30.09R
HETTINGER      SUNNY     71  30  21 NW24G33   30.12R
$$

 *****  OTHER AIRPORT OBSERVATIONS IN OUR AREA  *****

CITY           SKY/WX    TMP DP  RH WIND       PRES   REMARKS
WALHALLA         N/A     55  55 100 N8        29.85R
GRAFTON AIRPOR FAIR      61  54  77 NE10      29.83R
VALLEY CITY AR FAIR      66  46  48 NW18G28   29.89R
CANDO          FAIR      66  43  42 NW21G30   29.89R
CAVALIER APRT  TSTM      57  55  94 NE7       29.85R
GWINNER        CLEAR     70  46  43 NW15G22   29.92R
SHEYENNE NWR     N/A     67  49  52 NW7       29.95S
ROLLA          FAIR      63  41  45 NW22G35   29.90R
 ***** THE ABOVE OBSERVATIONS ARE NON NWS ARE NOT QUALITY
       CONTROLLED AND MAY MIS-REPORT RAIN FOR SNOW...
$$

  *****  WEATHER ACROSS NORTHERN MINNESOTA  *****

CITY           SKY/WX    TMP DP  RH WIND       PRES   REMARKS
FLAG ISLAND    DRIZZLE   54  48  82 NW16      29.78R
WARROAD        DRIZZLE   52  48  87 W6        29.80R
ROSEAU         RAIN      54  48  82 NW9       29.80S
HALLOCK        MOSUNNY   59  52  77 N12G20    29.83R
THF RVR FALLS  MOSUNNY   59  50  72 NW20G28   29.81R
BAUDETTE       LGT RAIN  53  51  93 NW9       29.74R
WASKISH        RAIN      54  52  94 NW9G16    29.75R
CROOKSTON      MOSUNNY   63  52  67 N12G22    29.83R
STEPHEN NDAWN    N/A     61  52  72 VRB16       N/A
GREENBUSH NDAW   N/A     55  54  94 NW12        N/A
$$
  *****  WEATHER ACROSS CENTRAL AND WEST MINNESOTA  *****

CITY           SKY/WX    TMP DP  RH WIND       PRES   REMARKS
FOSSTON        CLOUDY    57  48  72 NW25G33   29.82R
BEMIDJI        DRIZZLE   54  51  89 NW23G31   29.75R
PARK RAPIDS    MOSUNNY   59  50  72 NW24G31   29.79R
ELBOW LAKE     FAIR      63  51  65 NW18G28   29.86R
WADENA         MOSUNNY   59  48  67 NW20G26   29.82R
DETROIT LAKES  MOSUNNY   61  50  67 NW17G26   29.85R
MOORHEAD       SUNNY     66  54  63 NW10      29.85S
FERGUS FALLS   SUNNY     63  48  59 NW16G24   29.86S
MORRIS MN      NOT AVBL
STAPLES        MOSUNNY   57  48  72 NW18G30   29.81R
$$
  *****  WEATHER ELSEWHERE ACROSS MINNESOTA  *****

CITY           SKY/WX    TMP DP  RH WIND       PRES   REMARKS
DULUTH         MOSUNNY   64  50  60 W7        29.69F
INTRNTL FALLS  PTSUNNY   59  49  69 N5        29.70S
ELY            MOSUNNY   55  50  82 CALM      29.70S
CLOQUET        RAIN      59  52  77 W15G30    29.72R
WHEATON        SUNNY     64  50  59 NW13G20   29.90R
BRAINERD       CLOUDY    56  53  90 W10       29.78R
HIBBING        HVY RAIN  56  52  86 W9G22     29.70R FOG
ALEXANDRIA     MOSUNNY   62  52  69 NW23G32   29.85R
SAINT CLOUD    CLOUDY    63  57  81 NW13      29.78R
MINNEAPOLIS    RAIN      59  57  93 N7        29.78R FOG
$$

  *****  WEATHER ACROSS SOUTH DAKOTA  *****

CITY           SKY/WX    TMP DP  RH WIND       PRES   REMARKS
SIOUX FALLS    MOSUNNY   79  47  32 NW23G33   29.88R
BROOKINGS      NOT AVBL
WATERTOWN      MOSUNNY   67  46  47 NW26G35   29.93R
HURON          SUNNY     74  42  31 NW24G36   29.95R
SISSETON         N/A     68  49  50 N18G31    29.89R
ABERDEEN       PTSUNNY   68  48  48 NW12      29.97R
MITCHELL       SUNNY     78  48  34 N25G32    29.95R
PIERRE         SUNNY     77  35  21 NW22G36   30.02R
MOBRIDGE       SUNNY     73  40  30 NW21G35   30.00R
RAPID CITY     SUNNY     74  39  28 NW21G31   30.17R
$$

  *****  SOME WEATHER IN NEARBY STATES *****

CITY           SKY/WX    TMP DP  RH WIND       PRES   REMARKS
GLASGOW MT     SUNNY     73  34  23 NW20G25   30.15S
GREAT FALLS MT SUNNY     73  41  31 E7        30.21F
CHEYENNE WY    SUNNY     76  43  30 NE14      30.28R
SCOTTSBLUFF NE SUNNY     83  44  25 N17G23    30.17R
OMAHA NE       MOSUNNY   82  58  43 NW9       29.92R
DES MOINES IA  MOSUNNY   82  59  45 W9        29.85S
DAVENPORT IA   MOSUNNY   76  63  64 SW8       29.82F
CHICAGO IL     PTCLDY    77  65  66 SW8       29.78S
EAU CLAIRE WI  SUNNY     70  55  59 W5        29.72F
LA CROSSE WI   SUNNY     77  58  51 W3        29.74S
$$

  *****  SOME NATIONAL WEATHER *****

CITY           SKY/WX    TMP DP  RH WIND       PRES   REMARKS
LA GUARDIA NY  PTCLDY    70  60  70 S16G22    30.12F
RALEIGH NC     MOCLDY    74  59  59 NE7       30.04S
ATLANTA GA     PTCLDY    79  59  50 E10       30.04S
NEW ORLEANS LA MOSUNNY   86  67  52 E8        29.93R
OKLAHOMA CITY  MOSUNNY   87  66  49 SE9       29.96F
ALBUQUERQUE NM MOSUNNY   89  40  17 SE23G29   30.09S
SALT LAKE CITY MOSUNNY   84  48  28 NW12      30.06F
LOS ANGELES CA MOSUNNY   75  60  59 SW13      29.90F
BOISE ID       SUNNY     86  43  22 SE3       30.03F
SEATTLE WA     SUNNY     75  56  51 N10       29.97F
$$

*** WEATHER ACROSS MANITOBA...SASKATCHEWAN AND ONTARIO ***
                ***ONTARIO***

CITY           SKY/WX    TMP DP  RH WIND       PRES   REMARKS
GERALDTON      DRIZZLE   48  46  93 N6        29.71R
THUNDER BAY    MOCLDY    59  54  82 NW2       29.68R
SIOUX LOOKOUT  PTSUNNY   57  46  67 N5        29.72R
TORONTO        MOCLDY    73  59  60 SW15G24   29.79F
BIG TROUT LK   MOCLDY    43  34  70 NE8       29.81R
PICKLE LAKE    CLOUDY    45  39  81 VRB5      29.77R
DRYDEN         CLOUDY    57  48  72 N7        29.72R
KENORA         LGT RAIN  54  48  82 NW7       29.77R
$$
                *** MANITOBA***

CITY           SKY/WX    TMP DP  RH WIND       PRES   REMARKS
BRANDON        PTSUNNY   63  46  55 NW21G33   29.89R
DAUPHIN        PTSUNNY   61  48  63 NW18G26   29.87R
ISLAND LAKE    PTSUNNY   52  41  66 W6        29.81R
PILOT MOUND    NOT AVBL
THE PAS        CLOUDY    59  50  72 NW12      29.85R
THOMPSON       PTSUNNY   48  41  76 N5        29.85R
WINNIPEG       PTSUNNY   57  52  82 N5        29.84R
LYNN LAKE      PTSUNNY   48  43  81 S3        29.89R
CHURCHILL      MOCLDY    39  36  87 N8        29.90R
GILLAM         MOSUNNY   48  36  61 CALM      29.86R
$$
                ***SASKATCHEWAN***

CITY           SKY/WX    TMP DP  RH WIND       PRES   REMARKS
ESTEVAN        MOSUNNY   66  39  37 NW23G36   30.03R
KINDERSLEY     MOSUNNY   66  37  34 W15G26    30.13S
LLOYDMINSTER   MOSUNNY   66  32  28 W13G23    30.08S
PRINCE ALBERT  MOSUNNY   64  45  48 NW10      29.98
REGINA         MOSUNNY   66  39  37 NW21G33   30.04R
YORKTON        CLOUDY    63  45  51 NW18G26   29.95R
N. BATTLEFORD  SUNNY     70  34  26 NW17G29   30.07R
LA RONGE       CLOUDY    57  48  72 NW10      29.96R
SASKATOON      MOSUNNY   70  37  30 NW22G30   30.04R
SWIFT CURRENT  SUNNY     66  32  28 NW22G29   30.14R
$$
NOTE: THESE ARE AUTOMATED STATIONS WITH LIMITED QUALITY CONTROL
      "FAIR" INDICATES FEW OR NO CLOUDS BELOW 12,000 FEET WITH NO
      SIGNIFICANT WEATHER AND/OR OBSTRUCTIONS TO VISIBILITY.
      SKY/WX - SKY CONDITION AND SIGNIFICANT WEATHER.
      TMP - AIR TEMPERATURE.    DP   - DEWPOINT TEMPERATURE.
      RH  - RELATIVE HUMIDITY.  PRES - PRESSURE.
      HX  - HEAT INDEX.         WCI  - WIND CHILL INDEX.
$


USA.gov is the U.S. government's official web portal to all federal, state and local government web resources and services.